Epoch 2021 Mar. 7.0 TT = JDT 2459280.5
T 2021 Mar. 7.95390 TT Rudenko
q 8.8194652 (2000.0) P Q
z -0.0002565 Peri. 60.04849 +0.25491327 -0.43681308
+/-0.0000011 Node 300.38086 -0.73852226 +0.48794158
e 1.0022625 Incl. 89.81517 +0.62418275 +0.75571645
From 398 observations 2019 May 14-2020 Oct. 17, mean residual 0".4.
Finding Charts
Magnitudes Graph
m1 = -59 + 5 log d + 75 log r
The orbital elements are published on M.P.E.C. 2020-U96.
The charts are made with StellaNavigator Ver.10 (AstroArts).
The magnitudes graphs are made with Comet for Windows.
Copyright(C) Seiichi Yoshida (comet@aerith.net). All rights reserved.